Air Force Academy, CO

7:11 PM MST on November 14, 2019 (GMT -0700)
Usaf Academy

Weather History for KAFF - May, 2019

Change the Weather History Date:

Thursday, May 23, 2019

  Actual Average Record
Temperature  
Mean Temperature 38 °F -  
Max Temperature 40 °F 68 °F 89 °F (2000)
Min Temperature 35 °F 41 °F 30 °F (2002)
Degree Days  
Heating Degree Days 27    
Moisture  
Dew Point 37 °F    
Average Humidity 95    
Maximum Humidity 100    
Minimum Humidity 81    
Precipitation  
Precipitation 0.01 in - - ()
Sea Level Pressure  
Sea Level Pressure 30.03 in    
Wind  
Wind Speed 6 mph (SSE)    
Max Wind Speed 14 mph    
Max Gust Speed -    
Visibility 9 miles    
Events Rain    
Averages and records for this station are not official NWS values.
T = Trace of Precipitation, MM = Missing Value Source: NWS Daily Summary

Daily Weather History Graph

Daily Weather History Graph

Search for Another Location

Airport or City:

Astronomy

May. 23, 2019 Rise Set
Actual Time 5:40 AM MDT 8:12 PM MDT
Civil Twilight 5:09 AM MDT 8:42 PM MDT
Nautical Twilight 4:31 AM MDT 9:21 PM MDT
Astronomical Twilight 3:49 AM MDT 10:03 PM MDT
Moon No Moon Rise 9:46 AM MDT (5/23)
Length of Visible Light 15h 33m
Length of Day
14h 31m
Waning Gibbous, 77% of the Moon is Illuminated
May 23
Waning Gibbous
May 26
Last Quarter
Jun 3
New
Jun 10
First Quarter
Jun 17
Full

Hourly Weather History & Observations

Time (MDT) Temp. Windchill Dew Point Humidity Pressure Visibility Wind Dir Wind Speed Gust Speed Precip Events Conditions
12:13 AM 39.2 °F 35.9 °F 35.6 °F 87% 30.05 in 10.0 mi WNW 4.6 mph - N/A Rain Light Rain
12:16 AM 39.2 °F - 35.6 °F 87% 30.05 in 10.0 mi Calm Calm - N/A   Overcast
12:31 AM 39.2 °F 37.0 °F 37.4 °F 93% 30.04 in 10.0 mi West 3.5 mph - N/A   Overcast
12:46 AM 39.2 °F - 37.4 °F 93% 30.04 in 10.0 mi Calm Calm - N/A Rain Light Rain
12:56 AM 39.2 °F - 37.4 °F 93% 30.04 in 10.0 mi Calm Calm - N/A   Overcast
12:57 AM 39.2 °F - 37.4 °F 93% 30.04 in 10.0 mi Calm Calm - N/A   Overcast
12:58 AM 38.3 °F - 36.7 °F 94% 30.04 in 10.0 mi Calm Calm - 0.00 in   Overcast
1:00 AM 39.2 °F - 37.4 °F 93% 30.04 in 10.0 mi Calm Calm - N/A   Light Drizzle
1:18 AM 37.4 °F 34.9 °F 37.4 °F 100% 30.06 in 10.0 mi North 3.5 mph - N/A   Overcast
1:26 AM 37.4 °F 34.9 °F 37.4 °F 100% 30.06 in 10.0 mi North 3.5 mph - N/A   Light Drizzle
1:58 AM 37.9 °F - 37.8 °F 99% 30.04 in 10.0 mi Calm Calm - 0.00 in   Light Drizzle
2:05 AM 37.4 °F 34.9 °F 37.4 °F 100% 30.04 in 10.0 mi North 3.5 mph - N/A   Overcast
2:27 AM 37.4 °F - 37.4 °F 100% 30.04 in 10.0 mi Calm Calm - N/A   Overcast
2:57 AM 37.4 °F 33.8 °F 37.4 °F 100% 30.04 in 10.0 mi ENE 4.6 mph - N/A   Overcast
2:58 AM 37.9 °F 34.4 °F 37.8 °F 99% 30.04 in 10.0 mi ENE 4.6 mph - 0.00 in   Overcast
3:13 AM 37.4 °F 34.9 °F 37.4 °F 100% 30.04 in 10.0 mi NE 3.5 mph - N/A   Overcast
3:58 AM 37.4 °F 33.8 °F 37.2 °F 99% 30.06 in 8.0 mi SE 4.6 mph - N/A   Overcast
4:05 AM 37.4 °F 32.8 °F 37.4 °F 100% 30.06 in 9.0 mi SE 5.8 mph - N/A Rain Light Rain
4:25 AM 37.4 °F 32.8 °F 37.4 °F 100% 30.07 in 5.0 mi SE 5.8 mph - N/A Rain Light Rain
4:58 AM 36.9 °F 31.4 °F 36.7 °F 99% 30.07 in 6.0 mi SE 6.9 mph - 0.00 in Rain Light Rain
5:58 AM 36.1 °F 30.6 °F 36.0 °F 99% 30.09 in 3.0 mi SE 6.9 mph - 0.00 in Rain Light Rain
6:01 AM 35.6 °F 29.9 °F 35.6 °F 100% 30.09 in 3.0 mi SE 6.9 mph - N/A Rain Light Rain
6:58 AM 36.1 °F 29.3 °F 36.0 °F 99% 30.10 in 5.0 mi SE 9.2 mph - 0.01 in   Overcast
7:43 AM 37.4 °F 30.3 °F 37.4 °F 100% 30.10 in 6.0 mi SSE 10.4 mph - N/A   Overcast
7:58 AM 37.0 °F 30.4 °F 37.0 °F 100% 30.10 in 7.0 mi South 9.2 mph - N/A   Overcast
8:02 AM 37.4 °F 30.8 °F 37.4 °F 100% 30.10 in 8.0 mi South 9.2 mph - N/A   Light Drizzle
8:58 AM 37.0 °F 31.6 °F 37.0 °F 100% 30.07 in 10.0 mi South 6.9 mph - N/A   Overcast
9:31 AM 37.4 °F 31.4 °F 37.4 °F 100% 30.08 in 10.0 mi South 8.1 mph - N/A   Overcast
9:58 AM 38.7 °F 32.4 °F 36.3 °F 91% 30.08 in 10.0 mi South 9.2 mph - N/A   Overcast
10:13 AM 39.2 °F 31.2 °F 33.8 °F 81% 30.07 in 10.0 mi SSE 13.8 mph - N/A   Overcast
10:46 AM 39.2 °F 32.5 °F 35.6 °F 87% 30.07 in 10.0 mi South 10.4 mph - N/A   Overcast
10:58 AM 38.7 °F 30.9 °F 34.9 °F 86% 30.07 in 10.0 mi SSE 12.7 mph - N/A   Overcast
11:13 AM 39.2 °F 32.0 °F 35.6 °F 87% 30.06 in 4.0 mi South 11.5 mph - N/A   Overcast
11:28 AM 37.4 °F 30.3 °F 37.4 °F 100% 30.08 in 1.5 mi SSE 10.4 mph - N/A   Light Drizzle
11:58 AM 37.8 °F 30.7 °F 37.6 °F 99% 30.06 in 1.5 mi South 10.4 mph - 0.00 in   Light Drizzle
12:16 PM 37.4 °F 30.3 °F 37.4 °F 100% 30.06 in 2.0 mi SSW 10.4 mph - N/A   Overcast
12:58 PM 37.9 °F 31.5 °F 37.8 °F 99% 30.04 in 3.0 mi SSW 9.2 mph - 0.00 in   Overcast
1:58 PM 39.6 °F 32.5 °F 36.3 °F 88% 29.98 in 10.0 mi South 11.5 mph - N/A   Overcast
2:13 PM 39.2 °F 32.5 °F 35.6 °F 87% 29.98 in 10.0 mi South 10.4 mph - N/A   Overcast
2:58 PM 40.5 °F 33.6 °F 35.4 °F 82% 29.94 in 10.0 mi South 11.5 mph - N/A   Overcast
3:58 PM 40.3 °F 33.0 °F 35.2 °F 82% 29.94 in 10.0 mi South 12.7 mph - N/A   Overcast
4:13 PM 41.0 °F 33.9 °F 35.6 °F 81% 29.92 in 10.0 mi SSE 12.7 mph - N/A   Overcast
4:15 PM 41.0 °F 34.3 °F 35.6 °F 81% 29.92 in 10.0 mi South 11.5 mph - N/A Rain Light Rain
4:28 PM 39.2 °F 32.0 °F 37.4 °F 93% 29.94 in 10.0 mi South 11.5 mph - N/A   Overcast
4:58 PM 39.6 °F 33.0 °F 37.9 °F 94% 29.94 in 10.0 mi South 10.4 mph - 0.00 in   Overcast
5:13 PM 39.2 °F 32.0 °F 37.4 °F 93% 29.93 in 10.0 mi SSE 11.5 mph - N/A   Overcast
5:58 PM 39.7 °F 33.7 °F 38.1 °F 94% 29.92 in 10.0 mi South 9.2 mph - N/A   Overcast
6:58 PM 39.9 °F 35.1 °F 37.8 °F 92% 29.92 in 10.0 mi SSE 6.9 mph - N/A   Overcast
7:58 PM 40.1 °F 34.1 °F 37.9 °F 92% 29.92 in 10.0 mi South 9.2 mph - N/A   Overcast
8:28 PM 39.2 °F 31.6 °F 37.4 °F 93% 29.96 in 10.0 mi South 12.7 mph - N/A   Overcast
8:43 PM 39.2 °F 32.0 °F 39.2 °F 100% 29.96 in 10.0 mi South 11.5 mph - N/A   Overcast
8:58 PM 39.0 °F 31.0 °F 38.5 °F 98% 29.97 in 10.0 mi SSE 13.8 mph - N/A   Overcast
9:58 PM 39.0 °F 31.8 °F 38.8 °F 99% 29.99 in 10.0 mi South 11.5 mph - N/A   Overcast
10:43 PM 37.4 °F 33.8 °F 37.4 °F 100% 30.01 in 10.0 mi South 4.6 mph - N/A   Scattered Clouds
10:58 PM 37.0 °F 33.3 °F 36.9 °F 99% 30.01 in 10.0 mi SSE 4.6 mph - N/A   Mostly Cloudy
11:13 PM 37.4 °F 32.1 °F 37.4 °F 100% 30.01 in 10.0 mi South 6.9 mph - N/A   Mostly Cloudy
11:28 PM 35.6 °F 29.9 °F 35.6 °F 100% 30.01 in 10.0 mi NE 6.9 mph - N/A   Partly Cloudy
11:58 PM 35.1 °F 31.0 °F 34.9 °F 99% 30.01 in 10.0 mi ESE 4.6 mph - N/A   Scattered Clouds